Location: Juzet
(42.9779°N, 0.7597°E)
Time: 00:04:53
(UTC+00:00)

Cosmos 1464 Rocket - Pass Details

Date: 14 July 2020
Orbit: 951 x 1002 km, 82.9° (Epoch: 11 August)

Event Time Altitude Azimuth Distance (km) Brightness Sun altitude
Exits shadow 03:44:06 - 204° (SSW) 3,166 6.1 -7.8°
Reaches altitude 10° 03:45:13 10° 207° (SSW) 2,767 5.8 -7.7°
Maximum altitude 03:51:23 52° 282° (WNW) 1,232 4.4 -6.8°
Drops below altitude 10° 03:57:36 10° 358° (N) 2,772 6.9 -5.9°
Sets 04:00:13 0° 4° (N) 3,720 7.7 -5.5°
